Total_Precipitation_Accumulation
0.03 0.02 0.02 0.02 0.03 0.03 0.02 0.02 0.01 0.01 0.02 0.02 0.02 0.02 0.03 0.02 0.03 0.04 0.05 0.06 0.15 0.14 0.13 0.13 0.19 0.14 0.05 0.06 0.04 0.05 0.06 0.07 0.07 0.08 0.12 0.15 0.20 0.23 0.27 0.32 0.35 0.41
0.02 0.02 0.02 0.02 0.02 0.01 0.01 0.01 0.01 0.03 0.04 0.03 0.02 0.02 0.03 0.03 0.03 0.03 0.03 0.04 0.05 0.04 0.04 0.10 0.07 0.14 0.10 0.11 0.09 0.12 0.11 0.09 0.10 0.08 0.09 0.12 0.15 0.15 0.18 0.21 0.25 0.30
0.04 0.01 0.01 0.01 0.02 0.03 0.02 0.02 0.02 0.02 0.02 0.02 0.02 0.03 0.03 0.03 0.03 0.04 0.04 0.05 0.06 0.10 0.06 0.12 0.11 0.11 0.15 0.12 0.06 0.09 0.10 0.11 0.13 0.12 0.14 0.13 0.11 0.13 0.15 0.16 0.19 0.24
0.02 0.01 0.02 0.02 0.02 0.03 0.02 0.02 0.02 0.03 0.01 0.02 0.03 0.03 0.04 0.05 0.04 0.05 0.06 0.06 0.07 0.07 0.09 0.08 0.09 0.08 0.11 0.07 0.18 0.13 0.13 0.11 0.12 0.13 0.14 0.18 0.16 0.15 0.14 0.14 0.17 0.20
0.01 0.02 0.02 0.02 0.02 0.03 0.03 0.02 0.02 0.01 0.03 0.02 0.03 0.03 0.04 0.05 0.06 0.07 0.08 0.09 0.08 0.09 0.18 0.11 0.10 0.09 0.07 0.06 0.08 0.11 0.08 0.08 0.07 0.08 0.10 0.15 0.16 0.16 0.16 0.17 0.19 0.21
0.01 0.02 0.02 0.02 0.02 0.03 0.05 0.03 0.03 0.06 0.09 0.06 0.05 0.04 0.06 0.06 0.07 0.07 0.08 0.09 0.09 0.09 0.10 0.26 0.14 0.11 0.16 0.08 0.07 0.06 0.07 0.06 0.07 0.07 0.07 0.09 0.09 0.11 0.15 0.17 0.21 0.21
0.02 0.01 0.02 0.03 0.02 0.03 0.04 0.05 0.07 0.11 0.06 0.08 0.13 0.11 0.06 0.06 0.06 0.07 0.08 0.09 0.10 0.10 0.09 0.15 0.10 0.13 0.08 0.09 0.11 0.09 0.09 0.08 0.09 0.09 0.08 0.09 0.09 0.09 0.10 0.16 0.18 0.19
0.02 0.02 0.03 0.03 0.04 0.04 0.05 0.06 0.14 0.13 0.13 0.09 0.13 0.06 0.11 0.07 0.08 0.09 0.09 0.10 0.11 0.11 0.10 0.10 0.16 0.13 0.10 0.11 0.11 0.10 0.10 0.12 0.14 0.17 0.12 0.12 0.10 0.11 0.10 0.12 0.17 0.20
0.03 0.03 0.04 0.05 0.05 0.06 0.11 0.11 0.09 0.11 0.12 0.10 0.08 0.08 0.09 0.11 0.11 0.12 0.12 0.13 0.13 0.11 0.12 0.14 0.15 0.16 0.13 0.17 0.19 0.18 0.16 0.14 0.14 0.14 0.14 0.14 0.13 0.13 0.12 0.13 0.16 0.20
0.06 0.06 0.06 0.07 0.11 0.09 0.07 0.07 0.13 0.08 0.09 0.08 0.10 0.11 0.11 0.10 0.11 0.10 0.12 0.12 0.14 0.15 0.19 0.14 0.15 0.13 0.16 0.19 0.20 0.18 0.21 0.24 0.20 0.18 0.18 0.19 0.21 0.19 0.18 0.20 0.21 0.23
0.06 0.06 0.07 0.07 0.06 0.07 0.06 0.07 0.12 0.08 0.08 0.14 0.11 0.14 0.20 0.14 0.13 0.11 0.13 0.14 0.14 0.13 0.12 0.11 0.12 0.12 0.13 0.14 0.15 0.16 0.19 0.21 0.22 0.23 0.23 0.23 0.23 0.25 0.29 0.30 0.29 0.28
0.05 0.05 0.05 0.05 0.05 0.09 0.06 0.06 0.07 0.09 0.09 0.14 0.19 0.10 0.14 0.13 0.16 0.15 0.15 0.14 0.14 0.14 0.13 0.16 0.14 0.14 0.14 0.17 0.14 0.13 0.14 0.15 0.17 0.18 0.18 0.20 0.22 0.24 0.25 0.28 0.31 0.31
0.04 0.04 0.04 0.05 0.05 0.06 0.07 0.09 0.09 0.08 0.10 0.11 0.13 0.15 0.18 0.18 0.19 0.17 0.16 0.16 0.16 0.16 0.16 0.16 0.15 0.14 0.14 0.14 0.14 0.14 0.16 0.16 0.16 0.16 0.16 0.16 0.17 0.18 0.18 0.21 0.24 0.26
0.05 0.05 0.05 0.06 0.07 0.15 0.08 0.08 0.09 0.11 0.13 0.13 0.16 0.18 0.22 0.22 0.23 0.19 0.18 0.17 0.19 0.19 0.17 0.16 0.17 0.17 0.16 0.15 0.15 0.15 0.16 0.18 0.17 0.20 0.21 0.20 0.19 0.17 0.17 0.19 0.19 0.21
0.03 0.04 0.05 0.08 0.07 0.09 0.10 0.10 0.11 0.15 0.14 0.17 0.21 0.25 0.22 0.22 0.24 0.22 0.22 0.23 0.20 0.20 0.21 0.19 0.20 0.19 0.18 0.18 0.20 0.20 0.22 0.26 0.25 0.28 0.27 0.27 0.25 0.24 0.22 0.21 0.20 0.20
0.05 0.07 0.09 0.13 0.12 0.13 0.11 0.11 0.12 0.14 0.19 0.19 0.24 0.26 0.26 0.22 0.23 0.24 0.27 0.36 0.25 0.24 0.23 0.25 0.24 0.22 0.20 0.21 0.27 0.38 0.47 0.51 0.54 0.52 0.49 0.47 0.45 0.41 0.35 0.29 0.26 0.24
0.08 0.10 0.10 0.11 0.12 0.11 0.12 0.14 0.15 0.17 0.20 0.24 0.25 0.26 0.29 0.32 0.30 0.34 0.33 0.32 0.31 0.32 0.35 0.33 0.31 0.26 0.24 0.33 0.55 0.75 0.78 0.83 0.76 0.67 0.57 0.53 0.49 0.44 0.39 0.31 0.26 0.23
0.10 0.10 0.11 0.12 0.13 0.14 0.16 0.19 0.19 0.23 0.24 0.25 0.32 0.30 0.34 0.34 0.40 0.41 0.34 0.32 0.33 0.34 0.37 0.36 0.37 0.31 0.36 0.57 0.74 0.99 1.25 1.12 0.98 0.85 0.72 0.63 0.55 0.51 0.45 0.40 0.35 0.32
0.10 0.13 0.15 0.16 0.17 0.23 0.19 0.23 0.25 0.27 0.28 0.31 0.34 0.35 0.39 0.42 0.45 0.39 0.39 0.40 0.40 0.46 0.41 0.40 0.40 0.36 0.46 0.69 0.84 1.15 1.46 1.53 1.21 0.98 0.83 0.67 0.56 0.49 0.45 0.41 0.38 0.41
0.14 0.16 0.19 0.20 0.21 0.20 0.22 0.26 0.29 0.31 0.32 0.39 0.38 0.39 0.44 0.46 0.44 0.47 0.47 0.52 0.53 0.55 0.53 0.51 0.49 0.46 0.55 0.84 1.11 1.33 1.70 1.85 1.33 1.12 0.92 0.76 0.62 0.53 0.45 0.40 0.38 0.39
0.18 0.24 0.27 0.23 0.22 0.22 0.24 0.27 0.30 0.31 0.32 0.35 0.40 0.45 0.49 0.53 0.53 0.55 0.56 0.59 0.61 0.70 0.67 0.66 0.57 0.55 0.75 1.07 1.24 1.45 1.74 2.19 1.57 1.33 1.07 0.82 0.64 0.55 0.51 0.46 0.42 0.39
0.21 0.23 0.24 0.27 0.24 0.25 0.30 0.32 0.32 0.33 0.39 0.39 0.45 0.48 0.50 0.51 0.48 0.49 0.51 0.52 0.52 0.56 0.62 0.61 0.49 0.54 0.81 1.09 1.26 1.53 2.00 1.85 1.70 1.31 1.03 0.83 0.66 0.57 0.51 0.46 0.41 0.42
0.23 0.26 0.27 0.26 0.27 0.29 0.30 0.33 0.35 0.35 0.36 0.38 0.45 0.42 0.40 0.38 0.40 0.39 0.41 0.47 0.48 0.49 0.51 0.47 0.44 0.48 0.68 0.99 1.14 1.44 2.11 2.16 1.80 1.30 0.97 0.77 0.61 0.53 0.49 0.45 0.41 0.41
0.24 0.27 0.31 0.28 0.29 0.31 0.29 0.29 0.29 0.32 0.34 0.36 0.42 0.41 0.40 0.40 0.39 0.41 0.41 0.43 0.46 0.47 0.47 0.49 0.44 0.42 0.57 0.80 1.00 1.33 1.74 1.72 1.61 1.38 1.01 0.79 0.68 0.58 0.53 0.51 0.42 0.44
0.28 0.26 0.29 0.29 0.31 0.29 0.28 0.29 0.30 0.32 0.34 0.35 0.38 0.39 0.39 0.37 0.39 0.41 0.39 0.40 0.42 0.43 0.45 0.50 0.47 0.43 0.48 0.72 0.99 1.38 1.58 1.57 1.47 1.29 1.08 0.86 0.76 0.69 0.57 0.48 0.40 0.37
0.26 0.26 0.27 0.30 0.31 0.29 0.27 0.29 0.30 0.32 0.30 0.33 0.34 0.33 0.34 0.32 0.33 0.34 0.34 0.37 0.39 0.47 0.49 0.48 0.48 0.45 0.49 0.64 1.00 1.33 1.42 1.33 1.27 1.17 1.10 0.96 0.87 0.75 0.74 0.65 0.51 0.45